TimeMST,TemperatureF,Dew PointF,Humidity,Sea Level PressureIn,VisibilityMPH,Wind Direction,Wind SpeedMPH,Gust SpeedMPH,PrecipitationIn,Events,Conditions,WindDirDegrees,DateUTC
12:53 AM,-0.0,-6.0,76,30.37,10.0,Calm,Calm,-,N/A,,Overcast,0,2013-01-01 07:53:00
1:53 AM,-0.9,-6.0,79,30.40,10.0,West,4.6,-,N/A,,Overcast,280,2013-01-01 08:53:00
2:53 AM,1.0,-5.1,75,30.40,10.0,West,5.8,-,N/A,,Overcast,260,2013-01-01 09:53:00
3:53 AM,1.0,-4.0,79,30.43,9.0,Calm,Calm,-,N/A,,Overcast,0,2013-01-01 10:53:00
4:53 AM,3.0,-2.9,76,30.44,10.0,Calm,Calm,-,N/A,,Overcast,0,2013-01-01 11:53:00
5:53 AM,-0.0,-5.1,79,30.46,10.0,Calm,Calm,-,N/A,,Overcast,0,2013-01-01 12:53:00
6:53 AM,-2.0,-7.1,79,30.48,10.0,Calm,Calm,-,N/A,,Mostly Cloudy,0,2013-01-01 13:53:00
7:53 AM,1.0,-5.1,75,30.47,10.0,South,4.6,-,0.00,,Overcast,180,2013-01-01 14:53:00
8:53 AM,3.0,-5.1,69,30.44,10.0,Calm,Calm,-,N/A,,Clear,0,2013-01-01 15:53:00
9:53 AM,5.0,-2.0,73,30.45,10.0,Calm,Calm,-,N/A,,Clear,0,2013-01-01 16:53:00
10:53 AM,6.1,-0.9,73,30.43,10.0,Calm,Calm,-,N/A,,Clear,0,2013-01-01 17:53:00
11:53 AM,6.1,-0.9,73,30.38,10.0,ENE,4.6,-,N/A,,Clear,70,2013-01-01 18:53:00
12:53 PM,10.0,1.9,70,30.35,10.0,NNW,8.1,-,N/A,,Clear,340,2013-01-01 19:53:00
1:53 PM,9.0,1.0,70,30.32,10.0,East,3.5,-,N/A,,Clear,90,2013-01-01 20:53:00
2:53 PM,9.0,1.0,70,30.30,10.0,NE,4.6,-,N/A,,Clear,40,2013-01-01 21:53:00
3:53 PM,12.0,3.0,67,30.34,10.0,NNW,4.6,-,N/A,,Mostly Cloudy,330,2013-01-01 22:53:00
4:53 PM,10.9,3.0,70,30.37,10.0,WNW,9.2,-,N/A,,Overcast,300,2013-01-01 23:53:00
5:53 PM,10.9,1.9,67,30.40,10.0,NNW,6.9,-,N/A,,Overcast,330,2013-01-02 00:53:00
6:53 PM,9.0,1.0,70,30.45,10.0,Calm,Calm,-,N/A,,Mostly Cloudy,0,2013-01-02 01:53:00
7:53 PM,10.9,1.9,67,30.45,10.0,WSW,6.9,-,N/A,,Overcast,250,2013-01-02 02:53:00
8:53 PM,10.0,3.0,73,30.46,10.0,WSW,9.2,-,N/A,,Overcast,250,2013-01-02 03:53:00
9:53 PM,10.9,3.0,70,30.46,10.0,WSW,10.4,-,N/A,,Overcast,240,2013-01-02 04:53:00
10:53 PM,15.1,6.1,68,30.44,10.0,West,9.2,-,N/A,,Overcast,260,2013-01-02 05:53:00
11:53 PM,12.9,6.1,74,30.43,10.0,WSW,8.1,-,N/A,,Overcast,240,2013-01-02 06:53:00